Miscellaneous Local Product
Issued by NWS Hastings, NE

Home | Current Version | Previous Version | Graphics & Text | Print | Product List | Glossary On
Versions: 1 2 3 4 5 6 7 8 9 10 11 12 13 14 15 16 17 18 19 20 21 22 23 24 25 26 27 28 29 30 31 32 33 34 35 36 37 38 39 40 41 42 43 44 45 46 47 48 49 50
000
AXUS43 KGID 300602
MISGRI

GID CWA HOURLY WEATHER ROUNDUP
NATIONAL WEATHER SERVICE HASTINGS NE
100 AM CDT SUN AUG 30 2015

NOTE: "FAIR" INDICATES FEW OR NO CLOUDS BELOW 12,000 FEET WITH NO
SIGNIFICANT WEATHER AND/OR OBSTRUCTIONS TO VISIBILITY.

...SOUTH CENTRAL NEBRASKA...

CITY           SKY/WX    TMP DP  RH WIND       PRES   REMARKS
GRAND ISLAND   FAIR      63  61  93 S8        30.06S
HASTINGS       FAIR      63  61  93 S8        30.06S
KEARNEY        FAIR      61  55  82 S6        30.06S
ORD            CLEAR     59  58  96 CALM      30.03S
YORK           CLOUDY    63  63 100 S7        30.07S FOG
AURORA         FAIR      61  61 100 SE7       30.06S FOG
LEXINGTON      CLEAR     64  58  82 S6        30.06S
HOLDREGE       FAIR      62  58  87 S5        30.06F
HEBRON         FAIR      60  58  92 CALM      30.07R

...NEBRASKA PANHANDLE...

CITY           SKY/WX    TMP DP  RH WIND       PRES   REMARKS
CHADRON        PTCLDY    78  43  28 S23       29.94F
ALLIANCE       CLEAR     64  48  56 SE8       30.03F
SCOTTSBLUFF    PTCLDY    66  46  48 E9        30.03F
SIDNEY         CLEAR     65  40  39 S9        30.10F

...WESTERN AND NORTH CENTRAL NEBRASKA...

CITY           SKY/WX    TMP DP  RH WIND       PRES   REMARKS
VALENTINE      CLEAR     71  59  65 SW13      29.98S
AINSWORTH      CLEAR     68  62  80 S12       30.01S
ONEILL         MOCLDY    66  64  96 S8        30.01S
BROKEN BOW     CLEAR     62  59  90 S3        30.05S
IMPERIAL       CLEAR     70  48  45 S9        30.07F
NORTH PLATTE   CLEAR     68  56  65 SE7       30.05F
MCCOOK         CLEAR     68  54  60 S8        30.06S

...EASTERN NEBRASKA...

CITY           SKY/WX    TMP DP  RH WIND       PRES   REMARKS
NORFOLK        CLOUDY    63  62  97 S12       30.04S FOG
TEKAMAH        CLOUDY    64  63  96 S3        30.04F
COLUMBUS       MOCLDY   N/A N/A N/A S5        30.06S
ALBION         FAIR      63  61  93 SE7       30.05S FOG
OMAHA EPPLEY   CLOUDY    68  64  87 S7        30.05S
OFFUTT AFB     FAIR      66  63  88 CALM      30.04S
MILLARD        CLOUDY    67  63  87 SE3       30.05S
LINCOLN        CLOUDY    63  60  90 S8        30.07S FOG
NEBRASKA CITY  FAIR      60  59  98 W5        30.06R
BEATRICE       CLOUDY    62  60  94 CALM      30.06S
FALLS CITY     FAIR      58  57  97 CALM      30.05S

...NORTHERN KANSAS...

CITY           SKY/WX    TMP DP  RH WIND       PRES   REMARKS
GOODLAND       CLEAR     64  48  56 S12       30.12F
HILL CITY      FAIR      64  57  78 SE3       30.08S
NORTON         CLEAR     63  55  77 S5        30.07S
PHILLIPSBURG   CLEAR     64  64 100 SE3       30.06F
SMITH CENTER   CLEAR     59  57  94 E6        30.07S
HAYS           FAIR      61  54  77 CALM      30.07S
RUSSELL        FAIR      60  59  96 SE7       30.05F
CONCORDIA      FAIR      59  58  96 S5        30.06F
SALINA         FAIR      63  59  87 CALM      30.06S
TOPEKA         FAIR      64  63  96 CALM      30.05F



USA.gov is the U.S. government's official web portal to all federal, state and local government web resources and services.